Powrót do katalogu

PAYLOAD B

AktywnyMilitariaPO
NORAD 49113·PAYLOAD·🇨🇳 China

Wystrzelony Aug 24, 2021 z Jiuquan Satellite Launch Center

Loading…

Następne Przeloty (najbliższe 24 godziny)

TLE

ŚwieżeSource: Space-Track

Epoka: Sep 14, 2026, 14:12 UTC

1 49113U 21076B   26257.59188812 -.00000022  00000-0 -22989-4 0  9998
2 49113  86.4016  47.1716 0017160 289.9332  70.0001 14.09484774260028

Śledź PAYLOAD B w czasie rzeczywistym z AllMySat

Download on the App Store